Location: Cactus School
(34.5700°N, 118.0931°W)
Time: 19:29:36
(UTC-08:00)

Tiros 1 - Pass Details

Date: 22 November 2019
Orbit: 630 x 664 km, 48.4° (Epoch: 07 December)

Event Time Altitude Azimuth Distance (km) Brightness Sun altitude
Rises 20:09:54 0° 295° (WNW) 2,930 11.3 -42.1°
Enters shadow 20:11:58 - 285° (WNW) 2,219 10.5 -42.5°
Reaches altitude 10° 20:12:35 10° 281° (W) 2,024 - -42.6°
Maximum altitude 20:16:16 24° 228° (SW) 1,339 - -43.4°
Drops below altitude 10° 20:20:00 10° 175° (S) 2,032 - -44.2°
Sets 20:22:42 0° 162° (SSE) 2,945 - -44.7°
